South Bend, IN

5:01 AM EST on January 24, 2018 (GMT -0500)
South Bend Regional

Weather History for KSBN - February, 2012

Change the Weather History Date:

Friday, February 24, 2012

  Actual Average Record
Temperature  
Mean Temperature 33 °F 30 °F  
Max Temperature 36 °F 38 °F 65 °F (1976)
Min Temperature 29 °F 23 °F -8 °F (1914)
Degree Days  
Heating Degree Days 32 35  
Month to date heating degree days 795 908  
Since 1 July heating degree days 3932 4556  
Cooling Degree Days 0 0  
Month to date cooling degree days 0 0  
Year to date cooling degree days 0 0  
Moisture  
Dew Point 29 °F    
Average Humidity 83    
Maximum Humidity 96    
Minimum Humidity 69    
Precipitation  
Precipitation 0.42 in 0.08 in 1.38 in (2001)
Month to date precipitation 1.48 1.64  
Year to date precipitation 4.45 3.93  
Snow  
Snow 1.50 in 0.50 in 10.00 in (1967)
Month to date snowfall 9.0 13.3  
Since 1 July snowfall 49.7 56.4  
Snow Depth T in    
Sea Level Pressure  
Sea Level Pressure 29.60 in    
Wind  
Wind Speed 13 mph (NW)    
Max Wind Speed 24 mph    
Max Gust Speed 32 mph    
Visibility 3 miles    
Events Fog , Rain , Snow    
T = Trace of Precipitation, MM = Missing Value Source: NWS Daily Summary

Daily Weather History Graph

Daily Weather History Graph

Search for Another Location

Airport or City:

Trip Planner

Search our weather history database for the weather conditions in past years. The results will help you decide how hot, cold, wet, or windy it might be!

Date:

Astronomy

Feb. 24, 2012 Rise Set
Actual Time 7:28 AM EST 6:29 PM EST
Civil Twilight 7:00 AM EST 6:57 PM EST
Nautical Twilight 6:28 AM EST 7:29 PM EST
Astronomical Twilight 5:56 AM EST 8:01 PM EST
Moon 8:19 AM EST 9:35 PM EST
Length of Visible Light 11h 56m
Length of Day
11h 00m
Waxing Crescent, 7% of the Moon is Illuminated
Feb 24
Waxing Crescent
Feb 29
First Quarter
Mar 8
Full
Mar 14
Last Quarter
Mar 22
New

Hourly Weather History & Observations

Time (EST) Temp. Windchill Dew Point Humidity Pressure Visibility Wind Dir Wind Speed Gust Speed Precip Events Conditions
12:54 AM 35.1 °F 26.9 °F 32.0 °F 89% 29.46 in 4.0 mi ENE 11.5 mph 16.1 mph 0.00 in Rain Light Rain
1:20 AM 35.6 °F 27.5 °F 32.0 °F 87% 29.42 in 2.5 mi ENE 11.5 mph - 0.01 in Rain Light Rain
1:32 AM 35.6 °F 28.0 °F 32.0 °F 87% 29.42 in 3.0 mi ENE 10.4 mph - 0.02 in Rain Light Rain
1:54 AM 35.1 °F 27.9 °F 32.0 °F 89% 29.43 in 4.0 mi East 9.2 mph - 0.02 in   Overcast
2:54 AM 35.1 °F 27.9 °F 32.0 °F 89% 29.39 in 6.0 mi East 9.2 mph - 0.00 in Rain Light Rain
3:54 AM 35.1 °F 29.3 °F 32.0 °F 89% 29.38 in 6.0 mi East 6.9 mph - 0.02 in Rain Light Rain
4:36 AM 33.8 °F 28.6 °F 32.0 °F 93% 29.37 in 2.0 mi NNE 5.8 mph - 0.06 in Rain Heavy Rain
4:52 AM 33.8 °F 30.8 °F 32.0 °F 93% 29.37 in 4.0 mi NNE 3.5 mph - 0.07 in   Overcast
4:54 AM 34.0 °F 31.0 °F 32.0 °F 92% 29.39 in 4.0 mi NNE 3.5 mph - 0.07 in Rain Light Rain
5:05 AM 33.8 °F 29.6 °F 32.0 °F 93% 29.36 in 2.5 mi NE 4.6 mph - 0.00 in Rain Light Rain
5:34 AM 33.8 °F 28.6 °F 32.0 °F 93% 29.33 in 2.5 mi NE 5.8 mph - 0.02 in Rain Light Rain
5:54 AM 34.0 °F 28.8 °F 32.0 °F 92% 29.34 in 2.5 mi ENE 5.8 mph - 0.03 in Rain Light Rain
6:54 AM 34.0 °F 29.8 °F 32.0 °F 92% 29.34 in 2.5 mi NNE 4.6 mph - 0.02 in   Overcast
7:30 AM 33.8 °F 28.6 °F 30.2 °F 87% 29.32 in 1.0 mi North 5.8 mph - 0.02 in Snow Light Snow
7:54 AM 34.0 °F 25.5 °F 30.9 °F 89% 29.35 in 1.5 mi NNW 11.5 mph - 0.03 in Snow Light Snow
8:05 AM 33.8 °F 25.8 °F 30.2 °F 87% 29.34 in 1.0 mi NNW 10.4 mph - 0.01 in Snow Light Snow
8:54 AM 34.0 °F 25.5 °F 30.9 °F 89% 29.39 in 2.0 mi NNW 11.5 mph - 0.03 in Snow Light Snow
8:57 AM 33.8 °F 24.8 °F 30.2 °F 87% 29.37 in 1.8 mi NNW 12.7 mph - 0.00 in Snow Light Snow
9:50 AM 33.8 °F 23.9 °F 30.2 °F 87% 29.40 in 2.5 mi NNW 15.0 mph - 0.01 in Snow Light Snow
9:52 AM 33.8 °F 23.9 °F 28.4 °F 81% 29.40 in 3.0 mi NNW 15.0 mph - 0.01 in Snow Light Snow
9:54 AM 33.1 °F 22.6 °F 28.9 °F 85% 29.43 in 3.0 mi NNW 16.1 mph - 0.01 in Snow Light Snow
10:54 AM 34.0 °F 24.6 °F 28.9 °F 82% 29.49 in 2.0 mi NW 13.8 mph - 0.00 in Snow Light Snow
11:01 AM 33.8 °F 25.3 °F 30.2 °F 87% 29.48 in 1.0 mi NW 11.5 mph 21.9 mph 0.00 in Snow Light Snow
11:11 AM 33.8 °F 24.8 °F 30.2 °F 87% 29.49 in 1.0 mi NW 12.7 mph - 0.00 in Snow Light Snow
11:16 AM 33.8 °F 24.3 °F 30.2 °F 87% 29.49 in 2.0 mi NW 13.8 mph - 0.00 in Snow Light Snow
11:35 AM 33.8 °F 24.8 °F 30.2 °F 87% 29.51 in 2.0 mi NW 12.7 mph - 0.00 in Snow Light Snow
11:54 AM 34.0 °F 25.5 °F 30.9 °F 89% 29.55 in 2.0 mi WNW 11.5 mph 24.2 mph 0.00 in Snow Light Snow
12:01 PM 33.8 °F 24.8 °F 30.2 °F 87% 29.54 in 1.0 mi NW 12.7 mph - 0.00 in Snow Light Snow
12:05 PM 33.8 °F 23.9 °F 30.2 °F 87% 29.54 in 1.0 mi WNW 15.0 mph - 0.00 in Snow Light Snow
12:10 PM 33.8 °F 24.8 °F 30.2 °F 87% 29.54 in 3.0 mi WNW 12.7 mph - 0.01 in Snow Light Snow
12:27 PM 33.8 °F 24.3 °F 30.2 °F 87% 29.56 in 1.5 mi WNW 13.8 mph 23.0 mph 0.01 in Snow Light Snow
12:30 PM 33.8 °F 23.9 °F 30.2 °F 87% 29.56 in 2.0 mi NW 15.0 mph 23.0 mph 0.01 in Snow Light Snow
12:37 PM 33.8 °F 25.3 °F 30.2 °F 87% 29.57 in 0.5 mi NW 11.5 mph 21.9 mph 0.01 in Fog , Snow Light Snow
12:48 PM 33.8 °F 24.3 °F 30.2 °F 87% 29.58 in 1.2 mi NW 13.8 mph 21.9 mph 0.02 in Snow Light Snow
12:50 PM 33.8 °F 24.8 °F 30.2 °F 87% 29.58 in 2.5 mi WNW 12.7 mph - 0.02 in Snow Light Snow
12:54 PM 35.1 °F 25.5 °F 30.9 °F 85% 29.60 in 5.0 mi NW 15.0 mph - 0.02 in Snow Light Snow
1:05 PM 35.6 °F 25.9 °F 30.2 °F 81% 29.59 in 2.5 mi WNW 16.1 mph 23.0 mph 0.00 in Snow Light Snow
1:54 PM 34.0 °F 25.0 °F 30.9 °F 89% 29.64 in 0.2 mi WNW 12.7 mph 23.0 mph 0.00 in Fog , Snow Heavy Snow
2:01 PM 33.8 °F 23.5 °F 30.2 °F 87% 29.62 in 0.2 mi WNW 16.1 mph 21.9 mph 0.03 in Fog , Snow Snow
2:31 PM 33.8 °F 23.5 °F 30.2 °F 87% 29.63 in 1.5 mi West 16.1 mph 25.3 mph 0.10 in Snow Light Snow
2:44 PM 33.8 °F 21.9 °F 30.2 °F 87% 29.64 in 1.0 mi WNW 21.9 mph 29.9 mph 0.10 in Snow Light Snow
2:54 PM 34.0 °F 22.7 °F 30.9 °F 89% 29.68 in 1.8 mi WNW 19.6 mph 29.9 mph 0.11 in Snow Light Snow
3:22 PM 33.8 °F 22.8 °F 30.2 °F 87% 29.69 in 0.8 mi WNW 18.4 mph 29.9 mph 0.00 in Fog , Snow Light Snow
3:29 PM 33.8 °F 22.5 °F 30.2 °F 87% 29.69 in 0.5 mi West 19.6 mph - 0.00 in Fog , Snow Light Snow
3:47 PM 33.8 °F 23.2 °F 30.2 °F 87% 29.70 in 2.0 mi West 17.3 mph 26.5 mph N/A Snow Light Snow
3:54 PM 34.0 °F 22.4 °F 28.9 °F 82% 29.73 in 3.0 mi West 20.7 mph 27.6 mph 0.01 in Snow Light Snow
4:01 PM 33.8 °F 23.2 °F 28.4 °F 81% 29.71 in 4.0 mi WNW 17.3 mph 28.8 mph 0.00 in Snow Light Snow
4:17 PM 33.8 °F 22.8 °F 28.4 °F 81% 29.72 in 5.0 mi West 18.4 mph 26.5 mph 0.00 in Snow Light Snow
4:42 PM 33.8 °F 23.2 °F 28.4 °F 81% 29.74 in 10.0 mi West 17.3 mph - 0.00 in   Overcast
4:54 PM 34.0 °F 24.2 °F 28.0 °F 79% 29.77 in 10.0 mi West 15.0 mph - 0.01 in   Overcast
5:54 PM 34.0 °F 23.4 °F 27.0 °F 75% 29.79 in 7.0 mi West 17.3 mph 24.2 mph 0.00 in Snow Light Snow
6:19 PM 33.8 °F 23.2 °F 28.4 °F 81% 29.78 in 1.8 mi West 17.3 mph 26.5 mph 0.00 in Snow Light Snow
6:26 PM 33.8 °F 23.5 °F 28.4 °F 81% 29.78 in 1.5 mi West 16.1 mph 26.5 mph 0.00 in Snow Light Snow
6:29 PM 33.8 °F 23.5 °F 26.6 °F 75% 29.78 in 2.0 mi West 16.1 mph - 0.00 in Snow Light Snow
6:37 PM 33.8 °F 23.9 °F 26.6 °F 75% 29.79 in 4.0 mi West 15.0 mph 24.2 mph 0.00 in Snow Light Snow
6:54 PM 33.1 °F 22.6 °F 26.1 °F 75% 29.82 in 8.0 mi West 16.1 mph 25.3 mph 0.00 in Snow Light Snow
7:22 PM 33.8 °F 22.5 °F 26.6 °F 75% 29.80 in 5.0 mi West 19.6 mph 25.3 mph 0.00 in Snow Light Snow
7:35 PM 33.8 °F 23.5 °F 26.6 °F 75% 29.81 in 5.0 mi West 16.1 mph 29.9 mph 0.00 in Snow Light Snow
7:45 PM 32.0 °F 20.1 °F 26.6 °F 80% 29.81 in 2.5 mi West 19.6 mph - 0.00 in Snow Light Snow
7:54 PM 32.0 °F 21.6 °F 27.0 °F 82% 29.84 in 2.5 mi West 15.0 mph - 0.00 in Snow Light Snow
8:17 PM 32.0 °F 21.2 °F 28.4 °F 87% 29.82 in 1.0 mi West 16.1 mph 23.0 mph 0.00 in Snow Light Snow
8:30 PM 32.0 °F 21.6 °F 28.4 °F 87% 29.82 in 1.5 mi WSW 15.0 mph 21.9 mph 0.00 in Snow Light Snow
8:40 PM 32.0 °F 19.8 °F 26.6 °F 80% 29.82 in 3.0 mi West 20.7 mph 27.6 mph 0.00 in Snow Light Snow
8:54 PM 32.0 °F 20.5 °F 26.1 °F 79% 29.86 in 6.0 mi West 18.4 mph - 0.00 in Snow Light Snow
9:26 PM 30.2 °F 18.5 °F 26.6 °F 86% 29.84 in 1.8 mi West 17.3 mph 25.3 mph 0.00 in Snow Light Snow
9:41 PM 30.2 °F 18.1 °F 24.8 °F 80% 29.85 in 2.5 mi West 18.4 mph - 0.00 in Snow Light Snow
9:54 PM 30.9 °F 19.8 °F 24.1 °F 76% 29.88 in 7.0 mi WSW 16.1 mph 29.9 mph 0.00 in Snow Light Snow
10:54 PM 30.0 °F 18.3 °F 21.9 °F 72% 29.89 in 10.0 mi West 17.3 mph - 0.00 in   Overcast
11:54 PM 28.9 °F 16.9 °F 21.9 °F 75% 29.90 in 3.0 mi West 17.3 mph 24.2 mph 0.00 in Snow Light Snow